Starlink 5858

operational
NORAD ID: 57264 Int'l Des: 2023-094 Owner: SPXS Country: US Constellation: starlink
LEOCIRCULAR

Über Starlink 5858

Beschreibung wird geladen...

Live-Position

3D-Globus wird geladen...

Nächste Überflüge

Höhenverlauf

Altitude vs Time

uPlot chart will show altitude changes over time

Zweizeiliger Elementsatz

1 57264U 23094AY 26062.04757346 -.00000025 00000-0 13218-4 0 9991
2 57264 43.0044 53.1665 0001277 258.7666 101.3033 15.02534931146278
Epoch: 3. März 2026 • Age: 32 hours

Aktueller Status

Höhe 558.3 km
Geschwindigkeit 7.58 km/s
Subsatellitenpunkt 8.31°N, 67.92°W
Startdatum 7. Juli 2023
Alter 2.6 years
Typ internet

Technische Details

Klassifizierung Payload
Masse 305.00 kg
Trockenmasse 290.00 kg
Gesamtmasse 305.00 kg
Länge 0.20 m
Durchmesser 2.80 m
Spannweite 9.00 m
Form Box + pan
Hersteller SPXS
Bus-Typ Starlink
Phasenstatus In Orbit
Besitzer/Staat SPXS/US

Große Konstellationen

Loading constellations...